Jacksonville, IL

4:12 PM CST on December 08, 2016 (GMT -0600)
Jacksonville Municipal

Weather History for KIJX - December, 2012

Change the Weather History Date:

Saturday, December 22, 2012

  Actual Average (KSPI) Record (KSPI)
Temperature  
Mean Temperature 28 °F -  
Max Temperature 40 °F 34 °F 60 °F (1994)
Min Temperature 15 °F 20 °F -18 °F (1983)
Degree Days  
Heating Degree Days 38    
Moisture  
Dew Point 20 °F    
Average Humidity 71    
Maximum Humidity 90    
Minimum Humidity 53    
Precipitation  
Precipitation 0.00 in - - ()
Sea Level Pressure  
Sea Level Pressure 30.13 in    
Wind  
Wind Speed 4 mph (SSE)    
Max Wind Speed 12 mph    
Max Gust Speed 17 mph    
Visibility 10 miles    
Events      
Averages and records for this station are not official NWS values.
T = Trace of Precipitation, MM = Missing Value Source: NWS Daily Summary

Daily Weather History Graph

Daily Weather History Graph

Search for Another Location

Airport or City:

Trip Planner

Search our weather history database for the weather conditions in past years. The results will help you decide how hot, cold, wet, or windy it might be!

Date:

Astronomy

Dec. 22, 2012 Rise Set
Actual Time 7:19 AM CST 4:40 PM CST
Civil Twilight 6:48 AM CST 5:10 PM CST
Nautical Twilight 6:14 AM CST 5:44 PM CST
Astronomical Twilight 5:41 AM CST 6:17 PM CST
Moon 12:57 PM CST (12/22) 2:05 AM CST (12/22)
Length of Visible Light 10h 22m
Length of Day
9h 21m
Waxing Gibbous, 74% of the Moon is Illuminated
Dec 22
Waxing Gibbous
Dec 28
Full
Jan 4
Last Quarter
Jan 11
New
Jan 18
First Quarter

Hourly Weather History & Observations

Time (CST) Temp. Windchill Dew Point Humidity Pressure Visibility Wind Dir Wind Speed Gust Speed Precip Events Conditions
12:15 AM 21.6 °F 16.8 °F 14.7 °F 75% 30.27 in 10.0 mi West 3.5 mph - N/A   Clear
12:35 AM 19.4 °F 14.3 °F 14.4 °F 81% 30.27 in 10.0 mi West 3.5 mph - N/A   Clear
12:55 AM 17.4 °F - 13.1 °F 83% 30.28 in 10.0 mi Calm Calm - N/A   Clear
1:15 AM 18.3 °F - 12.9 °F 79% 30.28 in 10.0 mi Calm Calm - N/A   Clear
1:35 AM 19.2 °F - 13.3 °F 78% 30.28 in 10.0 mi Calm Calm - N/A   Clear
1:55 AM 17.4 °F - 11.7 °F 78% 30.29 in 10.0 mi Calm Calm - N/A   Clear
2:15 AM 17.2 °F - 12.9 °F 83% 30.29 in 10.0 mi Calm Calm - N/A   Clear
2:35 AM 17.4 °F - 13.8 °F 86% 30.29 in 10.0 mi Calm Calm - N/A   Clear
2:55 AM 18.5 °F - 13.5 °F 81% 30.30 in 10.0 mi Calm Calm - N/A   Clear
3:15 AM 19.4 °F - 13.8 °F 79% 30.29 in 10.0 mi Calm Calm - N/A   Clear
3:35 AM 18.1 °F - 12.9 °F 80% 30.28 in 10.0 mi Calm Calm - N/A   Clear
3:55 AM 17.2 °F - 12.7 °F 83% 30.27 in 10.0 mi Calm Calm - N/A   Clear
4:15 AM 16.7 °F - 12.9 °F 85% 30.27 in 10.0 mi Calm Calm - N/A   Clear
4:35 AM 16.9 °F - 13.6 °F 87% 30.26 in 10.0 mi Calm Calm - N/A   Clear
4:55 AM 16.7 °F - 13.6 °F 88% 30.25 in 10.0 mi Calm Calm - N/A   Clear
5:15 AM 15.8 °F - 13.1 °F 89% 30.26 in 10.0 mi Calm Calm - N/A   Clear
5:35 AM 15.4 °F - 12.7 °F 89% 30.26 in 10.0 mi Calm Calm - N/A   Clear
5:55 AM 16.2 °F - 13.3 °F 88% 30.26 in 10.0 mi Calm Calm - N/A   Clear
6:15 AM 15.6 °F - 12.4 °F 87% 30.27 in 10.0 mi Calm Calm - N/A   Clear
6:35 AM 15.6 °F - 12.9 °F 89% 30.27 in 10.0 mi Calm Calm - N/A   Clear
6:55 AM 15.8 °F - 13.3 °F 90% 30.27 in 10.0 mi Calm Calm - N/A   Clear
7:15 AM 15.8 °F - 13.5 °F 90% 30.26 in 10.0 mi Calm Calm - N/A   Clear
7:35 AM 17.4 °F - 14.0 °F 86% 30.25 in 10.0 mi Calm Calm - N/A   Clear
7:55 AM 17.2 °F - 13.6 °F 86% 30.25 in 10.0 mi Calm Calm - N/A   Clear
8:15 AM 17.8 °F - 14.0 °F 85% 30.24 in 10.0 mi Calm Calm - N/A   Clear
8:35 AM 19.9 °F 13.4 °F 15.4 °F 83% 30.23 in 10.0 mi ESE 4.6 mph - N/A   Clear
8:55 AM 22.5 °F 16.3 °F 16.7 °F 79% 30.24 in 10.0 mi South 4.6 mph - N/A   Clear
9:15 AM 25.0 °F 18.1 °F 16.7 °F 71% 30.24 in 10.0 mi South 5.8 mph - N/A   Clear
9:35 AM 26.4 °F 20.9 °F 17.1 °F 68% 30.24 in 10.0 mi South 4.6 mph - N/A   Clear
9:55 AM 28.2 °F 24.4 °F 18.0 °F 65% 30.24 in 10.0 mi SE 3.5 mph - N/A   Clear
10:15 AM 29.7 °F 26.1 °F 18.0 °F 62% 30.24 in 10.0 mi South 3.5 mph - N/A   Clear
10:35 AM 30.4 °F 23.6 °F 19.8 °F 65% 30.22 in 10.0 mi SE 6.9 mph - N/A   Clear
10:55 AM 32.0 °F 25.6 °F 19.4 °F 60% 30.20 in 10.0 mi SE 6.9 mph - N/A   Clear
11:15 AM 32.4 °F 26.0 °F 20.3 °F 61% 30.19 in 10.0 mi SE 6.9 mph - N/A   Clear
11:35 AM 33.3 °F 26.4 °F 21.4 °F 62% 30.17 in 10.0 mi SE 8.1 mph - N/A   Clear
11:55 AM 34.3 °F 27.7 °F 22.6 °F 62% 30.15 in 10.0 mi ESE 8.1 mph - N/A   Clear
12:15 PM 35.2 °F 27.6 °F 22.5 °F 60% 30.14 in 10.0 mi SE 10.4 mph - N/A   Clear
12:35 PM 36.0 °F 28.5 °F 23.0 °F 59% 30.13 in 10.0 mi SE 10.4 mph - N/A   Clear
12:55 PM 36.7 °F 29.9 °F 23.4 °F 59% 30.12 in 10.0 mi SE 9.2 mph - N/A   Clear
1:15 PM 37.4 °F 31.4 °F 23.2 °F 57% 30.11 in 10.0 mi SE 8.1 mph - N/A   Clear
1:35 PM 37.4 °F 30.3 °F 24.8 °F 60% 30.10 in 10.0 mi SE 10.4 mph - N/A   Clear
1:55 PM 38.1 °F 31.2 °F 25.2 °F 60% 30.08 in 10.0 mi SE 10.4 mph - N/A   Clear
2:15 PM 38.5 °F 32.1 °F 26.2 °F 61% 30.07 in 10.0 mi SE 9.2 mph - N/A   Clear
2:35 PM 39.7 °F 32.7 °F 23.9 °F 53% 30.06 in 10.0 mi SSE 11.5 mph 16.1 mph N/A   Clear
2:55 PM 39.7 °F 32.7 °F 25.3 °F 56% 30.05 in 10.0 mi SSE 11.5 mph - N/A   Clear
3:15 PM 40.1 °F 33.6 °F 25.5 °F 56% 30.05 in 10.0 mi SSE 10.4 mph 16.1 mph N/A   Clear
3:35 PM 39.6 °F 33.5 °F 26.4 °F 59% 30.04 in 10.0 mi SSE 9.2 mph - N/A   Clear
3:55 PM 39.2 °F 32.5 °F 26.8 °F 61% 30.03 in 10.0 mi SSE 10.4 mph - N/A   Clear
4:15 PM 38.7 °F 31.8 °F 27.0 °F 63% 30.02 in 10.0 mi SSE 10.4 mph - N/A   Clear
4:35 PM 37.6 °F 31.0 °F 27.5 °F 67% 30.01 in 10.0 mi SSE 9.2 mph - N/A   Clear
4:55 PM 37.4 °F 31.4 °F 27.0 °F 66% 30.01 in 10.0 mi SSE 8.1 mph - N/A   Clear
5:15 PM 37.4 °F 30.3 °F 26.8 °F 66% 30.01 in 10.0 mi SSE 10.4 mph - N/A   Clear
5:35 PM 37.4 °F 29.8 °F 26.6 °F 65% 30.00 in 10.0 mi SSE 11.5 mph 17.3 mph N/A   Clear
5:55 PM 37.4 °F 29.8 °F 26.6 °F 65% 29.99 in 10.0 mi South 11.5 mph - N/A   Clear
6:15 PM 37.4 °F 30.8 °F 26.2 °F 64% 29.99 in 10.0 mi SSE 9.2 mph - N/A   Clear
6:35 PM 37.0 °F 29.8 °F 25.9 °F 64% 29.99 in 10.0 mi SSE 10.4 mph - N/A   Clear
6:55 PM 36.7 °F 30.5 °F 25.9 °F 65% 29.98 in 10.0 mi SSE 8.1 mph - N/A   Clear
7:15 PM 35.8 °F 29.4 °F 26.2 °F 68% 29.98 in 10.0 mi SSE 8.1 mph - N/A   Clear
7:35 PM 36.5 °F 29.2 °F 26.1 °F 66% 29.97 in 10.0 mi SSE 10.4 mph - N/A   Clear
7:55 PM 36.5 °F 29.2 °F 26.1 °F 66% 29.96 in 10.0 mi South 10.4 mph - N/A   Clear
8:15 PM 36.9 °F 29.1 °F 25.9 °F 64% 29.96 in 10.0 mi South 11.5 mph - N/A   Clear
8:35 PM 37.2 °F 30.6 °F 25.9 °F 64% 29.96 in 10.0 mi South 9.2 mph - N/A   Clear
8:55 PM 36.7 °F 30.5 °F 26.1 °F 65% 29.95 in 10.0 mi South 8.1 mph - N/A   Clear
9:15 PM 36.7 °F 29.4 °F 25.9 °F 65% 29.95 in 10.0 mi South 10.4 mph - N/A   Clear
9:35 PM 36.3 °F 29.5 °F 26.1 °F 66% 29.95 in 10.0 mi South 9.2 mph - N/A   Clear
9:55 PM 36.5 °F 29.2 °F 26.1 °F 66% 29.94 in 10.0 mi South 10.4 mph - N/A   Clear
10:15 PM 35.6 °F 29.9 °F 26.1 °F 68% 29.94 in 10.0 mi South 6.9 mph - N/A   Clear
10:35 PM 35.4 °F 31.5 °F 25.7 °F 68% 29.94 in 10.0 mi SSW 4.6 mph - N/A   Clear
10:55 PM 34.7 °F 31.8 °F 25.9 °F 70% 29.95 in 10.0 mi WSW 3.5 mph - N/A   Clear
11:15 PM 33.4 °F 30.4 °F 25.7 °F 73% 29.94 in 10.0 mi SW 3.5 mph - N/A   Clear
11:35 PM 33.3 °F 27.9 °F 25.7 °F 74% 29.93 in 10.0 mi SSW 5.8 mph - N/A   Clear
11:55 PM 32.0 °F 25.6 °F 25.3 °F 76% 29.92 in 10.0 mi SSW 6.9 mph - N/A   Clear